Theta_e
345 347 348 347 347 348 348 348 347 346 345 345 345 345 341 346 346 347 348 346 343 343 346 345 345 344 342 343 339 333 335 336 340 343 341 342 339 343 344 344 339 337 342
345 345 347 346 345 348 347 347 347 347 346 346 346 346 345 341 343 347 346 346 346 343 343 344 345 345 344 343 344 343 335 332 331 335 338 339 336 333 334 338 345 342 338
350 349 346 347 347 347 348 348 347 347 347 347 346 345 345 345 345 347 347 345 339 337 344 343 343 345 345 344 343 343 343 340 337 333 332 332 334 337 339 334 335 344 345
348 349 348 347 348 348 350 349 349 350 349 348 348 346 345 345 344 344 345 346 345 344 341 344 343 343 343 345 345 344 344 344 343 340 336 334 334 334 337 341 340 335 335
348 348 348 349 349 350 351 351 351 349 346 346 346 344 343 344 343 342 340 341 342 343 340 342 345 344 342 342 343 344 344 345 345 344 341 339 338 337 335 340 338 336 336
349 349 347 348 350 351 351 351 351 348 346 346 345 344 342 340 340 340 341 342 342 341 343 343 342 341 344 345 344 342 343 343 344 345 345 342 341 340 339 338 335 332 332
350 350 350 347 345 349 351 352 351 349 348 346 345 344 341 338 339 340 340 337 338 341 343 342 344 343 346 344 344 345 345 343 341 343 346 345 344 342 341 341 339 338 335
350 351 350 349 351 351 352 352 353 349 346 344 345 342 343 340 340 336 336 338 337 341 342 341 340 341 341 341 342 343 346 347 343 342 343 345 345 345 343 342 342 341 340
352 352 351 353 349 344 348 350 350 345 344 344 341 343 344 342 340 336 335 338 338 336 338 337 336 338 339 341 341 343 342 345 346 345 343 343 344 345 345 344 343 342 342
354 353 353 349 336 334 334 336 338 339 338 341 339 339 339 339 339 338 335 335 335 336 332 332 333 334 335 336 338 340 342 344 346 346 346 346 344 344 344 344 345 343 343
354 352 346 340 335 334 335 336 334 334 337 338 337 337 336 336 336 337 336 333 330 328 328 328 331 330 329 333 335 337 338 341 343 342 343 345 346 346 346 346 344 345 345
351 344 340 337 333 333 331 331 332 334 335 334 335 336 336 336 336 334 334 331 329 327 327 326 327 327 327 328 330 333 336 339 341 343 344 342 341 344 346 347 347 344 345
346 339 336 333 331 330 330 333 334 335 335 336 334 333 333 332 332 332 332 330 328 325 324 323 324 324 325 324 324 323 333 334 334 343 344 344 345 345 346 346 347 347 346
344 340 334 331 329 329 332 335 335 334 334 333 331 330 332 331 329 326 326 325 325 323 323 323 323 323 323 322 322 322 325 324 330 336 341 341 342 344 344 345 346 347 347
346 338 330 330 329 331 334 335 335 333 330 329 329 328 325 322 319 319 320 321 323 326 325 323 323 323 323 323 323 325 325 326 328 330 331 335 340 340 342 343 343 346 347
343 332 330 329 331 334 334 334 331 328 329 327 325 321 318 319 320 320 320 320 320 321 323 321 321 322 322 324 324 325 325 325 325 326 330 333 338 339 341 337 341 343 345
334 331 329 330 334 334 333 330 327 327 326 323 320 317 317 318 321 321 321 320 320 320 321 321 321 321 321 322 323 323 324 326 328 327 330 334 336 338 338 336 337 341 339
332 330 331 333 335 334 330 326 326 326 324 322 317 316 317 322 321 321 320 321 321 321 321 322 322 321 321 321 322 324 325 326 329 330 328 328 329 332 337 337 333 333 337
331 330 333 335 335 330 325 325 326 325 323 317 315 317 322 321 321 321 321 322 323 323 324 323 323 323 323 323 323 323 324 325 325 326 326 325 325 328 335 335 334 334 337
329 332 335 334 332 326 325 327 326 324 319 315 314 319 322 321 321 321 324 324 323 323 322 324 324 324 324 324 324 324 325 324 324 324 325 326 330 331 335 336 337 334 339
328 333 333 334 328 325 326 327 326 322 317 316 313 318 322 322 322 323 324 323 323 321 321 321 322 324 324 324 324 324 324 324 323 323 325 330 334 335 335 337 337 335 338
328 332 334 334 328 326 328 327 326 320 318 316 315 321 322 322 322 322 321 318 319 320 320 321 322 325 325 325 324 324 324 324 327 328 329 333 336 338 338 338 338 339 338
329 332 335 334 330 326 328 328 323 318 319 315 316 321 320 321 321 320 318 316 319 319 321 323 321 323 324 325 324 324 324 325 327 331 335 334 338 338 339 339 338 337 338
330 333 334 333 331 327 329 327 322 319 316 314 318 321 319 319 319 319 316 317 317 318 321 324 326 324 324 325 324 324 325 326 329 331 334 337 338 339 339 339 339 339 338
332 334 332 328 327 328 328 325 320 317 312 313 319 320 317 317 316 320 315 317 317 317 319 321 325 328 325 325 325 324 325 326 330 334 334 337 339 339 340 340 339 340 339
332 333 329 329 330 330 327 320 316 311 312 313 318 319 317 316 316 316 314 314 314 314 319 319 323 329 325 324 324 324 325 328 328 336 336 338 339 339 341 340 340 341 339
Wind_Speed
9 9 10 12 12 13 13 12 13 13 14 15 15 15 16 16 16 17 16 14 15 14 15 17 18 17 18 17 19 19 20 20 19 20 18 18 17 17 16 15 15 15 15
13 12 13 13 14 13 14 14 15 15 15 15 16 17 17 18 18 17 16 16 16 17 18 21 22 21 20 20 20 20 20 20 21 21 21 22 20 19 20 18 18 16 16
17 17 15 16 15 15 14 15 14 15 17 18 19 18 17 18 20 20 19 18 17 19 21 23 24 26 25 22 22 21 21 21 21 22 22 22 22 22 21 20 20 19 20
10 13 17 17 15 16 17 19 19 19 20 20 19 19 19 20 21 22 21 23 21 25 22 22 24 26 27 27 25 25 25 23 23 24 24 23 23 22 23 22 22 21 22
9 10 12 15 17 18 19 21 18 18 21 21 20 20 20 21 22 22 22 24 26 22 19 21 21 24 25 27 29 30 28 28 25 26 26 25 24 24 24 24 23 23 22
9 12 13 14 15 17 17 16 17 16 17 18 20 22 20 19 19 17 18 18 17 19 20 22 22 23 25 25 28 29 31 31 31 29 28 28 26 25 25 25 25 24 23
11 12 13 12 13 14 15 16 17 17 18 18 16 22 25 14 12 13 12 22 17 16 13 16 16 18 20 18 25 29 30 32 33 32 31 30 28 28 27 26 25 25 24
14 14 14 12 12 15 16 16 15 15 15 15 8 11 4 13 2 26 18 16 19 16 17 17 21 22 22 25 24 25 27 28 31 33 35 33 32 31 30 29 27 26 25
14 13 12 12 13 12 10 10 10 10 10 12 10 6 3 2 16 11 24 9 15 23 20 22 24 22 21 19 21 25 23 27 29 31 35 34 34 35 34 34 32 30 28
13 14 13 10 7 8 7 7 6 7 9 9 13 8 11 15 4 7 11 22 17 20 29 27 27 27 25 25 25 24 26 24 23 26 29 32 35 34 35 34 36 36 33
12 9 8 7 7 6 5 6 7 8 8 9 9 13 13 12 12 6 11 14 23 22 26 26 25 30 29 26 27 27 27 26 26 27 28 27 29 31 37 38 34 36 38
10 10 8 7 6 6 7 7 7 7 7 10 12 13 14 7 9 9 7 17 19 26 22 28 28 30 31 31 28 26 26 27 26 25 26 28 27 30 32 36 38 35 33
12 11 9 8 6 5 6 6 5 7 8 10 12 15 16 18 18 18 17 20 13 29 26 28 29 30 31 32 32 31 28 28 27 26 25 23 24 29 30 33 36 38 36
17 14 11 9 6 5 5 7 8 8 9 12 14 14 17 18 21 25 21 22 16 19 28 30 28 31 34 36 35 32 31 30 29 28 29 29 28 28 29 28 33 35 37
20 15 11 8 6 4 5 8 8 8 11 11 13 16 19 27 30 31 32 27 21 15 18 35 30 25 30 34 34 30 29 30 31 32 30 29 29 28 30 27 30 32 36
21 15 11 8 6 5 5 6 7 8 10 12 17 23 27 31 32 33 28 27 26 27 17 33 37 34 31 32 33 33 34 34 35 35 35 32 29 30 30 30 30 28 29
17 15 12 9 7 5 4 4 6 7 9 17 23 27 31 32 31 33 29 27 28 30 21 33 35 36 34 33 33 37 36 33 34 35 35 32 32 32 34 35 35 32 32
18 15 12 10 7 5 4 4 5 7 13 20 26 30 34 33 30 33 30 30 32 35 36 29 37 35 38 33 32 31 33 30 30 29 34 35 35 36 34 33 35 33 30
22 16 14 9 8 6 5 5 6 10 16 22 27 30 31 27 30 29 32 33 36 37 37 35 34 38 36 31 30 32 31 33 33 31 35 39 38 35 32 30 28 31 30
21 15 11 8 6 4 4 6 7 12 18 23 28 29 27 25 28 31 35 39 42 39 38 33 33 34 30 27 25 23 21 27 29 27 31 34 32 33 32 32 31 29 27
18 15 10 8 6 6 5 6 9 14 18 25 30 32 30 28 27 31 40 44 46 42 37 31 26 27 26 19 16 20 22 23 24 28 29 28 26 29 28 30 32 33 31
14 11 9 9 8 7 6 8 11 16 20 25 29 32 31 27 29 35 41 48 48 39 36 27 24 20 26 21 21 20 19 16 7 20 27 22 21 23 23 26 30 30 31
11 10 11 10 8 7 8 10 12 16 21 24 27 30 25 26 31 35 44 46 42 38 31 27 25 26 25 23 21 19 19 19 16 16 18 8 17 20 19 21 26 25 24
12 11 11 9 9 8 9 11 12 17 21 22 25 24 23 26 29 37 44 39 41 38 38 35 28 34 30 23 23 24 18 16 19 21 15 6 9 11 11 15 18 20 18
14 12 11 9 10 9 10 8 12 17 19 21 22 22 24 27 31 34 38 36 42 43 43 41 32 23 28 26 22 19 13 9 7 6 14 8 7 8 4 5 7 14 15
14 12 10 8 9 9 7 5 12 14 18 20 20 22 22 25 27 31 32 34 36 40 38 42 39 16 12 19 17 17 14 7 8 3 4 11 8 8 4 6 7 12 12
Wind_Direction
278 290 299 303 307 308 309 313 303 303 310 304 288 284 291 285 288 283 284 278 273 264 246 246 251 261 260 262 259 252 247 246 245 250 250 246 241 243 246 248 248 246 247
283 287 291 299 297 306 311 312 304 300 304 307 302 290 292 286 283 283 282 282 281 267 252 253 250 252 261 263 262 261 255 252 251 246 248 250 249 244 242 241 245 251 251
284 282 285 288 302 308 315 324 315 309 305 306 300 298 294 289 283 283 281 278 282 276 259 254 254 252 253 256 259 261 261 257 259 255 252 252 251 250 249 244 239 246 250
301 283 272 278 291 299 306 315 319 319 319 316 308 301 299 293 286 285 284 283 285 288 273 259 257 254 253 253 255 259 258 260 261 259 255 254 253 251 249 248 246 244 244
301 306 300 288 281 294 299 309 310 319 324 325 320 314 306 300 295 285 287 284 286 287 272 271 269 261 258 256 257 258 259 256 257 261 257 255 254 253 252 250 250 248 247
289 299 303 299 294 296 302 305 308 316 323 328 323 319 319 312 303 297 299 299 298 300 285 280 282 278 267 262 261 259 257 257 256 257 258 257 255 252 252 253 253 251 248
284 288 301 304 297 299 304 308 310 315 324 333 329 327 321 318 321 313 336 318 313 314 311 306 297 307 290 284 275 262 257 254 254 256 254 255 256 256 253 252 252 253 252
272 282 285 291 303 305 302 304 307 310 318 334 332 321 325 323 14 325 321 321 310 305 307 309 306 301 294 288 283 274 266 255 253 255 254 255 255 255 257 255 251 250 251
266 270 278 290 300 301 308 312 309 317 320 325 336 311 327 289 326 318 320 331 323 313 306 313 306 302 300 294 288 281 280 271 253 253 252 254 257 256 258 258 256 253 249
267 263 271 279 304 323 324 318 314 319 315 310 323 314 296 302 311 312 317 312 318 311 307 311 306 304 298 291 287 279 279 282 272 261 254 252 254 255 255 259 259 256 254
265 251 244 268 299 313 314 303 304 308 311 307 316 316 314 314 303 288 309 311 310 306 303 308 305 300 298 292 290 285 276 275 272 274 268 255 250 252 255 253 256 258 258
243 229 243 269 289 304 311 307 314 310 308 311 315 314 306 303 303 303 297 303 297 304 300 298 293 294 292 291 289 286 284 277 275 267 272 260 254 248 251 251 251 252 253
228 235 249 261 279 301 309 292 295 307 312 313 315 314 310 310 307 301 299 301 293 299 294 289 284 285 285 287 285 286 278 278 276 267 264 268 265 256 250 251 251 250 249
243 243 247 252 262 288 283 288 305 321 320 317 317 317 311 310 309 306 294 295 299 296 294 287 282 277 279 280 283 282 275 276 271 266 263 264 263 260 258 256 254 248 248
251 242 236 243 250 252 271 293 306 320 315 322 322 322 317 314 310 310 304 287 277 291 298 298 295 287 280 279 276 271 271 274 272 270 266 264 262 260 257 254 256 253 250
242 234 228 231 226 235 275 290 307 321 315 332 328 325 322 324 317 312 303 295 284 278 282 281 290 287 284 278 273 271 272 273 268 267 265 263 262 259 251 258 254 254 251
233 231 225 213 216 236 261 283 304 310 326 331 331 328 322 324 318 316 308 295 285 280 278 281 274 278 276 272 267 268 266 263 263 263 261 262 261 260 257 255 253 254 258
238 231 219 212 217 231 253 271 294 313 334 329 330 327 324 324 316 316 305 294 288 281 273 278 279 274 270 271 268 259 262 258 254 259 263 264 261 259 259 255 250 253 260
237 224 222 222 211 228 236 267 294 326 330 330 329 329 325 325 317 311 301 295 294 291 282 271 273 271 264 266 261 259 257 256 254 259 265 267 263 256 253 249 246 254 250
220 220 222 211 223 242 256 281 302 322 329 329 329 330 324 325 317 306 305 301 301 297 290 276 277 265 262 260 249 252 251 246 250 256 263 263 254 250 248 247 247 242 245
211 213 212 207 229 237 265 284 307 318 324 327 330 331 326 321 310 313 314 310 305 301 294 277 267 264 260 251 231 237 241 255 255 254 255 248 241 242 244 243 240 239 238
206 210 215 218 236 245 277 289 303 309 322 328 331 334 334 329 324 321 323 318 308 301 290 276 263 253 255 243 238 233 240 248 260 256 236 236 223 230 233 237 238 239 243
210 217 221 232 248 260 272 282 290 310 321 327 335 341 331 326 331 332 331 321 323 321 314 283 259 249 256 240 230 229 236 242 247 262 200 219 217 226 232 234 243 246 248
213 222 228 244 257 260 278 274 288 310 322 332 342 347 343 333 336 346 340 327 336 335 336 323 291 264 246 241 228 232 243 276 251 254 240 246 224 228 244 241 241 239 233
212 219 228 242 247 258 273 269 301 315 329 340 341 348 351 349 346 355 350 341 347 341 342 337 318 280 252 242 229 226 239 252 268 243 221 225 223 232 241 210 199 209 207
223 220 230 240 253 270 270 290 310 326 336 342 339 346 352 356 357 6 359 353 349 338 347 355 7 12 265 248 230 225 230 239 275 266 228 188 194 184 137 99 134 140 145